Location: Unspecified
(0.0000°N, 0.0000°E)
Time: 18:59:18
(UTC+00:00)

Vanguard 2 Rocket - Pass Details

Date: 23 November 2019
Orbit: 554 x 3326 km, 32.9° (Epoch: 09 December)

Event Time Altitude Azimuth Distance (km) Brightness Sun altitude
Rises 14:34:14 0° 228° (SW) 7,317 12.3 44.2°
Reaches altitude 10° 14:42:16 10° 211° (SSW) 6,168 12.0 42.4°
Maximum altitude 14:53:42 18° 174° (S) 4,942 11.1 39.9°
Drops below altitude 10° 15:02:56 10° 135° (SE) 4,902 10.6 37.8°
Sets 15:08:02 0° 117° (ESE) 5,398 10.6 36.7°
